Time,TemperatureF,DewpointF,PressureIn,WindDirection,WindDirectionDegrees,WindSpeedMPH,WindSpeedGustMPH,Humidity,HourlyPrecipIn,Conditions,Clouds,dailyrainin,SoftwareType,DateUTC
2013-06-08 00:11:00,50.4,44.0,29.93,NE,49,0.0,0.0,79,0.00,,,0.00,weatherlink.com 1.10,2013-06-08 05:11:00,
2013-06-08 00:26:00,49.9,44.0,29.93,NE,49,0.0,0.0,80,0.00,,,0.00,weatherlink.com 1.10,2013-06-08 05:26:00,
2013-06-08 00:41:00,49.9,45.0,29.93,NE,49,0.0,0.0,82,0.00,,,0.00,weatherlink.com 1.10,2013-06-08 05:41:00,
2013-06-08 01:26:00,48.8,44.0,29.92,NE,49,0.0,0.0,84,0.00,,,0.00,weatherlink.com 1.10,2013-06-08 06:26:00,
2013-06-08 01:41:00,48.4,44.0,29.92,NE,49,0.0,0.0,84,0.00,,,0.00,weatherlink.com 1.10,2013-06-08 06:41:00,
2013-06-08 02:26:00,48.5,45.0,29.93,NE,49,0.0,0.0,86,0.00,,,0.00,weatherlink.com 1.10,2013-06-08 07:26:00,
2013-06-08 02:41:00,48.4,44.0,29.93,NE,49,0.0,0.0,86,0.00,,,0.00,weatherlink.com 1.10,2013-06-08 07:41:00,
2013-06-08 02:56:00,48.2,44.0,29.93,NE,49,0.0,0.0,86,0.00,,,0.00,weatherlink.com 1.10,2013-06-08 07:56:00,
2013-06-08 03:11:00,48.9,45.0,29.93,NE,49,0.0,0.0,87,0.00,,,0.00,weatherlink.com 1.10,2013-06-08 08:11:00,
2013-06-08 03:26:00,49.3,46.0,29.94,NE,49,0.0,0.0,89,0.00,,,0.00,weatherlink.com 1.10,2013-06-08 08:26:00,
2013-06-08 03:41:00,49.4,46.0,29.93,NE,49,0.0,0.0,88,0.00,,,0.00,weatherlink.com 1.10,2013-06-08 08:41:00,
2013-06-08 04:11:00,49.5,46.0,29.93,NE,49,0.0,0.0,86,0.00,,,0.00,weatherlink.com 1.10,2013-06-08 09:11:00,
2013-06-08 04:26:00,49.6,45.0,29.94,NE,49,0.0,0.0,84,0.00,,,0.00,weatherlink.com 1.10,2013-06-08 09:26:00,
2013-06-08 04:41:00,49.4,45.0,29.94,NE,49,0.0,0.0,85,0.00,,,0.00,weatherlink.com 1.10,2013-06-08 09:41:00,
2013-06-08 04:56:00,48.8,45.0,29.94,NE,49,0.0,0.0,85,0.00,,,0.00,weatherlink.com 1.10,2013-06-08 09:56:00,
2013-06-08 05:11:00,49.2,45.0,29.94,NE,49,0.0,1.0,84,0.00,,,0.00,weatherlink.com 1.10,2013-06-08 10:11:00,
2013-06-08 05:26:00,49.0,45.0,29.94,NE,49,0.0,0.0,85,0.00,,,0.00,weatherlink.com 1.10,2013-06-08 10:26:00,
2013-06-08 05:41:00,48.8,45.0,29.95,NE,49,0.0,0.0,85,0.00,,,0.00,weatherlink.com 1.10,2013-06-08 10:41:00,
2013-06-08 05:56:00,49.1,45.0,29.95,NE,49,0.0,0.0,87,0.00,,,0.00,weatherlink.com 1.10,2013-06-08 10:56:00,
2013-06-08 06:11:00,49.1,46.0,29.95,NE,49,0.0,0.0,88,0.00,,,0.00,weatherlink.com 1.10,2013-06-08 11:11:00,
2013-06-08 06:26:00,49.5,46.0,29.95,NE,49,0.0,0.0,88,0.00,,,0.00,weatherlink.com 1.10,2013-06-08 11:26:00,
2013-06-08 06:41:00,50.3,47.0,29.96,NE,49,0.0,0.0,89,0.00,,,0.00,weatherlink.com 1.10,2013-06-08 11:41:00,
2013-06-08 06:56:00,51.0,47.0,29.96,NE,49,0.0,0.0,86,0.00,,,0.00,weatherlink.com 1.10,2013-06-08 11:56:00,
2013-06-08 07:11:00,52.2,48.0,29.96,NE,49,0.0,0.0,84,0.00,,,0.00,weatherlink.com 1.10,2013-06-08 12:11:00,
2013-06-08 07:27:00,53.3,49.0,29.96,NE,49,0.0,0.0,84,0.00,,,0.00,weatherlink.com 1.10,2013-06-08 12:27:00,
2013-06-08 07:42:00,54.4,48.0,29.96,NE,49,0.0,0.0,79,0.00,,,0.00,weatherlink.com 1.10,2013-06-08 12:42:00,
2013-06-08 07:57:00,55.7,49.0,29.96,NE,49,0.0,2.0,77,0.00,,,0.00,weatherlink.com 1.10,2013-06-08 12:57:00,
2013-06-08 08:12:00,56.7,49.0,29.97,NE,49,0.0,1.0,74,0.00,,,0.00,weatherlink.com 1.10,2013-06-08 13:12:00,
2013-06-08 08:27:00,57.7,49.0,29.97,NE,49,0.0,1.0,73,0.00,,,0.00,weatherlink.com 1.10,2013-06-08 13:27:00,
2013-06-08 08:42:00,58.5,50.0,29.98,NE,49,0.0,1.0,74,0.00,,,0.00,weatherlink.com 1.10,2013-06-08 13:42:00,
2013-06-08 08:57:00,59.4,48.0,29.99,NE,49,0.0,2.0,66,0.00,,,0.00,weatherlink.com 1.10,2013-06-08 13:57:00,
2013-06-08 09:12:00,60.4,48.0,29.99,NE,49,0.0,1.0,63,0.00,,,0.00,weatherlink.com 1.10,2013-06-08 14:12:00,
2013-06-08 09:27:00,61.1,48.0,29.98,NNW,336,0.0,2.0,62,0.00,,,0.00,weatherlink.com 1.10,2013-06-08 14:27:00,
2013-06-08 09:42:00,62.0,47.0,29.98,NNW,334,0.0,2.0,59,0.00,,,0.00,weatherlink.com 1.10,2013-06-08 14:42:00,
2013-06-08 09:57:00,63.0,47.0,29.98,NW,326,0.0,3.0,57,0.00,,,0.00,weatherlink.com 1.10,2013-06-08 14:57:00,
2013-06-08 10:12:00,63.8,48.0,29.97,NNW,331,0.0,3.0,56,0.00,,,0.00,weatherlink.com 1.10,2013-06-08 15:12:00,
2013-06-08 10:27:00,64.3,49.0,29.97,NNW,343,2.0,3.0,58,0.00,,,0.00,weatherlink.com 1.10,2013-06-08 15:27:00,
2013-06-08 10:42:00,64.6,47.0,29.97,NNW,333,1.0,4.0,54,0.00,,,0.00,weatherlink.com 1.10,2013-06-08 15:42:00,
2013-06-08 10:58:00,65.6,47.0,29.98,NNE,12,1.0,4.0,52,0.00,,,0.00,weatherlink.com 1.10,2013-06-08 15:58:00,
2013-06-08 11:12:00,66.1,47.0,29.99,NNE,15,1.0,5.0,50,0.00,,,0.00,weatherlink.com 1.10,2013-06-08 16:12:00,
2013-06-08 11:27:00,67.0,48.0,29.99,NW,321,0.0,4.0,50,0.00,,,0.00,weatherlink.com 1.10,2013-06-08 16:27:00,
2013-06-08 11:42:00,67.8,49.0,29.98,NNE,13,2.0,2.0,51,0.00,,,0.00,weatherlink.com 1.10,2013-06-08 16:42:00,
2013-06-08 11:57:00,68.4,49.0,29.98,North,10,0.0,4.0,51,0.00,,,0.00,weatherlink.com 1.10,2013-06-08 16:57:00,
2013-06-08 12:12:00,69.1,50.0,29.98,NW,312,0.0,5.0,50,0.00,,,0.00,weatherlink.com 1.10,2013-06-08 17:12:00,
2013-06-08 12:27:00,69.1,50.0,29.98,North,355,3.0,5.0,50,0.00,,,0.00,weatherlink.com 1.10,2013-06-08 17:27:00,
2013-06-08 12:42:00,68.5,50.0,29.98,NNE,26,2.0,6.0,51,0.00,,,0.00,weatherlink.com 1.10,2013-06-08 17:42:00,
2013-06-08 12:57:00,68.7,49.0,29.98,NNE,24,3.0,6.0,49,0.00,,,0.00,weatherlink.com 1.10,2013-06-08 17:57:00,
2013-06-08 13:12:00,67.9,48.0,29.98,North,355,3.0,6.0,50,0.00,,,0.00,weatherlink.com 1.10,2013-06-08 18:12:00,
2013-06-08 13:27:00,68.8,50.0,29.98,NNE,12,0.0,4.0,52,0.00,,,0.00,weatherlink.com 1.10,2013-06-08 18:27:00,
2013-06-08 13:42:00,69.3,50.0,29.98,North,360,4.0,5.0,51,0.00,,,0.00,weatherlink.com 1.10,2013-06-08 18:42:00,
2013-06-08 13:57:00,69.5,51.0,29.97,North,9,2.0,4.0,53,0.00,,,0.00,weatherlink.com 1.10,2013-06-08 18:57:00,
2013-06-08 14:12:00,68.9,51.0,29.97,NE,37,0.0,3.0,54,0.00,,,0.00,weatherlink.com 1.10,2013-06-08 19:12:00,
2013-06-08 14:28:00,69.2,50.0,29.97,NNE,20,0.0,4.0,51,0.00,,,0.00,weatherlink.com 1.10,2013-06-08 19:28:00,
2013-06-08 14:43:00,70.1,51.0,29.97,NNW,333,2.0,5.0,51,0.00,,,0.00,weatherlink.com 1.10,2013-06-08 19:43:00,
2013-06-08 14:58:00,70.1,49.0,29.97,NNW,336,1.0,4.0,48,0.00,,,0.00,weatherlink.com 1.10,2013-06-08 19:58:00,
2013-06-08 15:13:00,69.3,50.0,29.97,North,355,2.0,6.0,50,0.00,,,0.00,weatherlink.com 1.10,2013-06-08 20:13:00,
2013-06-08 15:28:00,70.1,50.0,29.97,NNW,348,0.0,5.0,50,0.00,,,0.00,weatherlink.com 1.10,2013-06-08 20:28:00,
2013-06-08 15:43:00,69.5,49.0,29.98,North,355,2.0,4.0,49,0.00,,,0.00,weatherlink.com 1.10,2013-06-08 20:43:00,
2013-06-08 15:58:00,70.0,51.0,29.98,West,281,1.0,1.0,52,0.00,,,0.00,weatherlink.com 1.10,2013-06-08 20:58:00,
2013-06-08 16:13:00,69.1,50.0,29.98,NNW,338,1.0,4.0,51,0.00,,,0.00,weatherlink.com 1.10,2013-06-08 21:13:00,
2013-06-08 16:28:00,69.2,50.0,29.99,NNW,348,0.0,4.0,50,0.00,,,0.00,weatherlink.com 1.10,2013-06-08 21:28:00,
2013-06-08 16:43:00,68.6,50.0,29.99,North,5,3.0,4.0,52,0.00,,,0.00,weatherlink.com 1.10,2013-06-08 21:43:00,
2013-06-08 16:58:00,67.0,49.0,30.00,NNW,343,4.0,4.0,53,0.00,,,0.00,weatherlink.com 1.10,2013-06-08 21:58:00,
2013-06-08 17:13:00,66.4,50.0,29.99,North,5,3.0,5.0,55,0.00,,,0.00,weatherlink.com 1.10,2013-06-08 22:13:00,
2013-06-08 17:28:00,66.2,48.0,29.99,NNW,342,0.0,5.0,53,0.00,,,0.00,weatherlink.com 1.10,2013-06-08 22:28:00,
2013-06-08 17:43:00,65.6,49.0,29.99,NNW,343,2.0,3.0,56,0.00,,,0.00,weatherlink.com 1.10,2013-06-08 22:43:00,
2013-06-08 17:58:00,64.9,48.0,29.99,NW,311,1.0,4.0,55,0.00,,,0.00,weatherlink.com 1.10,2013-06-08 22:58:00,
2013-06-08 18:13:00,64.7,49.0,29.99,NNW,348,0.0,3.0,57,0.00,,,0.00,weatherlink.com 1.10,2013-06-08 23:13:00,
2013-06-08 18:28:00,64.4,49.0,30.00,North,355,1.0,4.0,57,0.00,,,0.00,weatherlink.com 1.10,2013-06-08 23:28:00,
2013-06-08 18:43:00,63.9,48.0,30.00,NNW,346,3.0,4.0,57,0.00,,,0.00,weatherlink.com 1.10,2013-06-08 23:43:00,
2013-06-08 18:58:00,63.4,50.0,30.00,NNW,329,0.0,1.0,61,0.00,,,0.00,weatherlink.com 1.10,2013-06-08 23:58:00,
2013-06-08 19:27:00,62.6,49.0,30.01,NW,325,0.0,4.0,62,0.00,,,0.00,weatherlink.com 1.10,2013-06-09 00:27:00,
2013-06-08 19:43:00,62.1,50.0,30.00,NW,321,0.0,2.0,64,0.00,,,0.00,weatherlink.com 1.10,2013-06-09 00:43:00,
2013-06-08 19:58:00,61.4,50.0,30.01,North,360,0.0,1.0,66,0.00,,,0.00,weatherlink.com 1.10,2013-06-09 00:58:00,
2013-06-08 20:13:00,60.8,49.0,30.01,North,360,0.0,1.0,66,0.00,,,0.00,weatherlink.com 1.10,2013-06-09 01:13:00,
2013-06-08 20:28:00,59.6,49.0,30.00,North,360,0.0,1.0,69,0.00,,,0.00,weatherlink.com 1.10,2013-06-09 01:28:00,
2013-06-08 20:43:00,58.4,50.0,30.01,NNW,346,0.0,1.0,73,0.00,,,0.00,weatherlink.com 1.10,2013-06-09 01:43:00,
2013-06-08 20:58:00,57.8,50.0,30.01,NNW,346,0.0,0.0,75,0.00,,,0.00,weatherlink.com 1.10,2013-06-09 01:58:00,
2013-06-08 21:14:00,57.4,50.0,30.01,NNW,346,0.0,1.0,77,0.00,,,0.00,weatherlink.com 1.10,2013-06-09 02:14:00,
2013-06-08 21:28:00,56.6,51.0,30.02,NNW,346,0.0,1.0,80,0.00,,,0.00,weatherlink.com 1.10,2013-06-09 02:28:00,
2013-06-08 21:43:00,56.2,50.0,30.02,NNW,346,0.0,1.0,81,0.00,,,0.00,weatherlink.com 1.10,2013-06-09 02:43:00,
2013-06-08 21:58:00,55.8,51.0,30.02,NW,324,0.0,0.0,83,0.00,,,0.00,weatherlink.com 1.10,2013-06-09 02:58:00,
2013-06-08 22:13:00,55.5,51.0,30.02,NW,324,0.0,0.0,84,0.00,,,0.00,weatherlink.com 1.10,2013-06-09 03:13:00,
2013-06-08 22:28:00,55.2,51.0,30.02,NW,324,0.0,0.0,84,0.00,,,0.00,weatherlink.com 1.10,2013-06-09 03:28:00,
2013-06-08 22:43:00,55.2,51.0,30.01,WNW,298,0.0,1.0,84,0.00,,,0.00,weatherlink.com 1.10,2013-06-09 03:43:00,
2013-06-08 22:58:00,55.1,50.0,30.01,WNW,295,0.0,1.0,84,0.00,,,0.00,weatherlink.com 1.10,2013-06-09 03:58:00,
2013-06-08 23:13:00,55.1,50.0,30.02,SE,130,0.0,1.0,84,0.00,,,0.00,weatherlink.com 1.10,2013-06-09 04:13:00,
2013-06-08 23:28:00,54.9,50.0,30.02,SE,130,0.0,0.0,84,0.00,,,0.00,weatherlink.com 1.10,2013-06-09 04:28:00,
2013-06-08 23:43:00,54.7,50.0,30.02,SE,130,0.0,1.0,84,0.00,,,0.00,weatherlink.com 1.10,2013-06-09 04:43:00,
2013-06-08 23:58:00,54.7,50.0,30.03,SE,130,0.0,0.0,85,0.00,,,0.00,weatherlink.com 1.10,2013-06-09 04:58:00,